Regional Weather Roundup
Issued by NWS

Home | Current Version | Previous Version | Graphics & Text | Print | Product List | Glossary On
Versions: 1 2 3 4 5 6 7 8 9 10 11 12 13 14 15 16 17 18 19 20 21 22 23 24 25 26 27 28 29 30 31 32 33 34 35 36 37 38 39 40 41 42 43 44 45 46 47 48 49 50
000
ASUS43 KIND 121309
RWRIN

WEATHER ROUNDUP FOR INDIANA
NATIONAL WEATHER SERVICE INDIANAPOLIS IN
800 AM EST TUE DEC 12 2017

NOTE: "FAIR" INDICATES FEW OR NO CLOUDS BELOW 12,000 FEET WITH NO
SIGNIFICANT WEATHER AND/OR OBSTRUCTIONS TO VISIBILITY.

* - STATION DOES NOT REPORT WEATHER SUCH AS PRECIPITATION OR FOG.

+ - STATION NOT QUALITY CONTROLLED BY THE NATIONAL WEATHER SERVICE.
    USE DATA WITH CAUTION...ESPECIALLY DEWPOINT AND RELATIVE
    HUMIDITY OBSERVATIONS.

INZ001>003-010>013-019-020-121400-
NORTHWEST INDIANA

CITY           SKY/WX    TMP DP  RH WIND       PRES   REMARKS
GARY /AIRPORT/ MOCLDY    21   9  58 NW17G35   30.05R WCI   7
KNOX *+        CLOUDY    25  18  74 NW16      29.98R WCI  12
LA PORTE +     CLOUDY    23  14  67 N17G25    29.98R WCI   9
MICHIGAN CITY+ FLURRIES  25  18  74 NW16G24   29.99R WCI  12
MONTICELLO +   PTCLDY    22   9  56 NW21      30.01R WCI   6
RENSSELAER +   CLEAR     21   9  58 NW13      30.04R WCI   9
VALPARAISO     CLOUDY    23  14  68 NW20G25   30.00R WCI   8

$$

LMZ046-743>745-121400-
SOUTHERN LAKE MICHIGAN

STATION/POSITION TIME  TEMP    WIND        PRES    WAVE
                       AIR SEA DIR/SP/G            HT
                 (UTC) (F)     (DEG/KT/KT) (MB)    (FT)
BURNS HARBOR     1240   24     300/ 25/ 31 1015.9R
MICHIGAN CITY    1240   23     310/ 29/ 34   N/A

$$

INZ004-005-014>016-021>024-121400-
NORTH CENTRAL INDIANA

CITY           SKY/WX    TMP DP  RH WIND       PRES   REMARKS
ELKHART        LGT SNOW  21  18  86 NW10G16   29.94R WCI  10
GOSHEN         LGT SNOW  22  18  85 NW15      29.93R VSB 3/4 WCI   9
LOGANSPORT +   FLURRIES  23  14  68 NW13G23   29.99R WCI  11
PERU/GRISSOM   CLOUDY    24  16  70 NW16G25   29.95R WCI  11
ROCHESTER +    MOCLDY    27  18  69 NW16      29.96R WCI  14
SOUTH BEND     FLURRIES  21  16  81 NW18G26   29.96R WCI   6
WARSAW +       MOCLDY    23  18  80 NW12G24   29.94R WCI  12

$$

INZ006>009-017-018-025>027-121400-
NORTHEAST INDIANA

CITY           SKY/WX    TMP DP  RH WIND       PRES   REMARKS
AUBURN +       CLOUDY    23  12  63 N12       29.91R WCI  12
FORT WAYNE     LGT SNOW  23  19  85 NW17G24   29.92R FOG     WCI   9
HUNTINGTON +   CLOUDY    24  14  66 NW7G16    29.93R WCI  16
KENDALLVILLE + MOCLDY    20  11  68 NW9G18    29.91R WCI   9

$$

INZ028-029-035-036-043>045-051>053-121400-
WEST CENTRAL INDIANA

CITY           SKY/WX    TMP DP  RH WIND       PRES   REMARKS
CRAWFORDSVL +  PTCLDY    21  11  64 NW16        N/A  WCI   7
GREENCASTLE +  MOCLDY    27  14  59 NW9       30.02R WCI  17
LAFAYETTE      CLEAR     21  12  68 NW13      30.03R WCI   9
TERRE HAUTE    PTCLDY    25  10  53 NW16      30.07R WCI  12

$$

INZ030>032-037>040-046>048-054>057-064-065-121400-
CENTRAL INDIANA

CITY           SKY/WX    TMP DP  RH WIND       PRES   REMARKS
COLUMBUS       FLURRIES  30  18  59 NW25G32   29.97R WCI  16
FRANKFORT +    CLEAR     24  13  63 NW15G23   30.01R WCI  11
INDIANAPOLIS   PTCLDY    24  13  62 NW17G30   30.00R WCI  11
-EAGLE CREEK   PTCLDY    25  13  60 NW17G26   29.98R WCI  12
KOKOMO +       CLOUDY    25  16  68 NW17      29.97R WCI  12
MARION +       LGT SNOW  24  18  75 NW14G22   29.95R WCI  12
MT COMFORT *+  MOCLDY    23  18  80 NW16        N/A  WCI  10
SHELBYVILLE    MOCLDY    27  16  63 NW20G28   29.96R WCI  13
ZIONSVILLE +   CLEAR     21  13  71 NW17G23   29.98R WCI   7

$$

INZ033-034-041-042-049-050-058-059-121400-
EAST CENTRAL INDIANA

CITY           SKY/WX    TMP DP  RH WIND       PRES   REMARKS
MUNCIE         CLOUDY    27  18  69 NW18G25   29.92R WCI  14
RICHMOND +     LGT SNOW  27  23  86 NW16G24   29.89R WCI  14

$$

INZ060-061-067>069-081>083-085>088-121400-
SOUTHWEST INDIANA

CITY           SKY/WX    TMP DP  RH WIND       PRES   REMARKS
EVANSVILLE     CLOUDY    34  24  67 NW14G26   30.07R WCI  25
HUNTINGBURG +  CLOUDY    33  21  61 NW15G23   30.04R WCI  23
WASHINGTON +   CLOUDY    32  19  58 N21G26    30.04R WCI  20

$$

INZ062-063-066-070>080-084-089>092-121400-
SOUTH CENTRAL AND SOUTHEAST INDIANA

CITY           SKY/WX    TMP DP  RH WIND       PRES   REMARKS
BEDFORD +      CLOUDY    32  18  55 W10G21    29.98R WCI  24
BLOOMINGTON    CLOUDY    31  20  63 NW12G20   29.98R WCI  22
MADISON *+     CLOUDY    32  19  59 NW10G18   29.97R WCI  24
NORTH VERNON + CLOUDY    30  18  59 NW14      29.96R WCI  20
SEYMOUR +      CLOUDY    34  19  55 NW12G24   29.97R WCI  25

$$





USA.gov is the U.S. government's official web portal to all federal, state and local government web resources and services.